QNT2233 UZTT-VVPQ

Flight info

Callsign QNT2233
Flight time 6h 8m
Altitude 33000
Route N0450F330 BAMGU T609 USETU M741 AMDAR M875 TAPIS L509 INDEK T400 SULOM A466 ASARI L509 GGC R460 CEA L507 BKK N891 RYN R334 NUMDI
Aircraft A21N/M-VGDW/C

Departure

Time 2026-04-19 07:09
Airport Tashkent International Airport (UZTT)

Arrival

Time 2026-04-19 13:18
Airport Phú Quốc International Airport (VVPQ)
Time Latitude Longitude Altitude Speed Heading
2026-04-19 06:09 41.26301 69.27217 1387 ft 6 kts 351°
2026-04-19 07:03 41.26304 69.27217 1383 ft 2 kts 351°
2026-04-19 07:03 41.26324 69.27208 1384 ft 4 kts 327°
2026-04-19 07:03 41.26332 69.27160 1387 ft 7 kts 263°
2026-04-19 07:03 41.26324 69.27083 1385 ft 6 kts 262°
2026-04-19 07:04 41.26323 69.27071 1386 ft 2 kts 261°
2026-04-19 07:04 41.26319 69.27036 1387 ft 5 kts 261°
2026-04-19 07:04 41.26291 69.26994 1387 ft 8 kts 187°
2026-04-19 07:04 41.26237 69.27037 1386 ft 11 kts 139°
2026-04-19 07:05 41.26178 69.27106 1384 ft 11 kts 138°
2026-04-19 07:05 41.26125 69.27116 1385 ft 10 kts 238°
2026-04-19 07:05 41.26094 69.27016 1384 ft 13 kts 246°
2026-04-19 07:05 41.26053 69.26893 1383 ft 16 kts 246°
2026-04-19 07:06 41.26006 69.26751 1384 ft 18 kts 246°
2026-04-19 07:06 41.25952 69.26589 1384 ft 20 kts 246°
2026-04-19 07:06 41.25932 69.26528 1385 ft 6 kts 246°
2026-04-19 07:06 41.25901 69.26471 1386 ft 9 kts 221°
2026-04-19 07:07 41.25845 69.26410 1385 ft 12 kts 219°
2026-04-19 07:07 41.25775 69.26332 1383 ft 14 kts 225°
2026-04-19 07:07 41.25721 69.26207 1386 ft 17 kts 243°
2026-04-19 07:07 41.25694 69.26131 1384 ft 1 kts 245°
2026-04-19 07:08 41.25687 69.26112 1387 ft 4 kts 245°
2026-04-19 07:08 41.25667 69.26075 1387 ft 6 kts 215°
2026-04-19 07:08 41.25628 69.26103 1384 ft 9 kts 96°
2026-04-19 07:08 41.25635 69.26209 1383 ft 24 kts 82°
2026-04-19 07:09 41.25698 69.26774 1387 ft 96 kts 81°
2026-04-19 07:09 41.25823 69.27895 1385 ft 146 kts 82°
2026-04-19 07:09 41.25992 69.29414 1526 ft 175 kts 79°
2026-04-19 07:09 41.26166 69.31031 2158 ft 178 kts 80°
2026-04-19 07:10 41.26333 69.32681 2692 ft 185 kts 82°
2026-04-19 07:10 41.26519 69.34403 3332 ft 191 kts 82°
2026-04-19 07:10 41.26712 69.36160 4071 ft 192 kts 82°
2026-04-19 07:10 41.26825 69.37939 4749 ft 199 kts 98°
2026-04-19 07:11 41.26223 69.39651 5142 ft 216 kts 134°
2026-04-19 07:11 41.24875 69.40657 5507 ft 237 kts 170°
2026-04-19 07:11 41.23170 69.40443 5813 ft 261 kts 204°
2026-04-19 07:11 41.21727 69.38934 6420 ft 271 kts 232°
2026-04-19 07:12 41.20645 69.36873 7252 ft 272 kts 235°
2026-04-19 07:12 41.19573 69.34846 8154 ft 271 kts 233°
2026-04-19 07:12 41.18443 69.32837 9131 ft 270 kts 232°
2026-04-19 07:12 41.17292 69.30871 10133 ft 268 kts 231°
2026-04-19 07:13 41.16105 69.28865 10578 ft 287 kts 230°
2026-04-19 07:13 41.14533 69.27077 10858 ft 309 kts 215°
2026-04-19 07:13 41.12683 69.25468 11125 ft 330 kts 214°
2026-04-19 07:13 41.10689 69.23751 11477 ft 346 kts 214°
2026-04-19 07:14 41.08661 69.21976 12121 ft 351 kts 214°
2026-04-19 07:14 41.06622 69.20172 12839 ft 354 kts 215°
2026-04-19 07:14 41.04570 69.18345 13580 ft 357 kts 215°
2026-04-19 07:14 41.02502 69.16501 14198 ft 360 kts 215°
2026-04-19 07:15 41.00410 69.14635 14762 ft 364 kts 215°
2026-04-19 07:15 40.98299 69.12749 15326 ft 368 kts 215°
2026-04-19 07:15 40.94014 69.08929 16419 ft 374 kts 215°
2026-04-19 07:16 40.91871 69.07019 16949 ft 378 kts 215°
2026-04-19 07:16 40.89679 69.05069 17471 ft 381 kts 215°
2026-04-19 07:16 40.87465 69.03100 17978 ft 385 kts 216°
2026-04-19 07:16 40.85237 69.01120 18452 ft 388 kts 216°
2026-04-19 07:17 40.82993 68.99129 18904 ft 390 kts 216°
2026-04-19 07:17 40.80725 68.97117 19342 ft 393 kts 216°
2026-04-19 07:17 40.78445 68.95093 19788 ft 395 kts 216°
2026-04-19 07:17 40.76183 68.93088 20224 ft 398 kts 216°
2026-04-19 07:18 40.73874 68.91043 20666 ft 400 kts 216°
2026-04-19 07:18 40.71553 68.88988 21093 ft 403 kts 216°
2026-04-19 07:18 40.69213 68.86922 21525 ft 406 kts 216°
2026-04-19 07:18 40.66849 68.84839 21960 ft 409 kts 216°
2026-04-19 07:19 40.64471 68.82739 22379 ft 413 kts 216°
2026-04-19 07:19 40.62075 68.80625 22799 ft 416 kts 216°
2026-04-19 07:19 40.59664 68.78497 23232 ft 419 kts 217°
2026-04-19 07:19 40.57347 68.76165 23659 ft 420 kts 224°
2026-04-19 07:20 40.55328 68.73394 24031 ft 420 kts 231°
2026-04-19 07:20 40.53448 68.70498 24415 ft 422 kts 232°
2026-04-19 07:20 40.51546 68.67538 24797 ft 425 kts 232°
2026-04-19 07:20 40.49625 68.64572 25179 ft 427 kts 232°
2026-04-19 07:21 40.47686 68.61604 25552 ft 430 kts 232°
2026-04-19 07:21 40.45728 68.58622 25925 ft 432 kts 232°
2026-04-19 07:21 40.43760 68.55623 26287 ft 435 kts 232°
2026-04-19 07:21 40.41780 68.52603 26626 ft 437 kts 232°
2026-04-19 07:22 40.39789 68.49572 26941 ft 440 kts 233°
2026-04-19 07:22 40.37791 68.46538 27339 ft 440 kts 233°
2026-04-19 07:22 40.35789 68.43499 27785 ft 439 kts 233°
2026-04-19 07:22 40.33794 68.40475 28199 ft 438 kts 233°
2026-04-19 07:23 40.31798 68.37454 28612 ft 438 kts 234°
2026-04-19 07:23 40.29806 68.34440 29030 ft 437 kts 234°
2026-04-19 07:23 40.27814 68.31430 29458 ft 437 kts 234°
2026-04-19 07:23 40.25851 68.28468 29871 ft 436 kts 234°
2026-04-19 07:24 40.23862 68.25467 30249 ft 436 kts 234°
2026-04-19 07:24 40.21877 68.22473 30570 ft 435 kts 234°
2026-04-19 07:24 40.19893 68.19483 30897 ft 435 kts 234°
2026-04-19 07:24 40.17905 68.16490 31173 ft 436 kts 235°
2026-04-19 07:25 40.15917 68.13505 31497 ft 435 kts 235°
2026-04-19 07:25 40.13926 68.10517 31810 ft 435 kts 235°
2026-04-19 07:25 40.11943 68.07541 32131 ft 434 kts 235°
2026-04-19 07:25 40.09960 68.04568 32445 ft 434 kts 235°
2026-04-19 07:26 40.07974 68.01594 32755 ft 433 kts 235°
2026-04-19 07:26 40.05997 67.98636 33058 ft 433 kts 235°
2026-04-19 07:26 40.04019 67.95680 33314 ft 432 kts 236°
2026-04-19 07:26 40.02040 67.92726 33598 ft 432 kts 236°
2026-04-19 07:27 40.00062 67.89777 33875 ft 431 kts 236°
2026-04-19 07:27 39.98111 67.86869 34072 ft 432 kts 236°
2026-04-19 07:27 39.96135 67.83928 34102 ft 431 kts 236°
2026-04-19 07:28 39.92185 67.78065 34081 ft 430 kts 236°
2026-04-19 07:28 39.88236 67.72203 34071 ft 430 kts 236°
2026-04-19 07:29 39.84285 67.66346 34080 ft 430 kts 236°
2026-04-19 07:29 39.82289 67.63431 34214 ft 433 kts 233°
2026-04-19 07:29 39.80033 67.60783 34411 ft 440 kts 225°
2026-04-19 07:29 39.77601 67.58351 34627 ft 441 kts 224°
2026-04-19 07:30 39.75148 67.55962 34801 ft 440 kts 224°
2026-04-19 07:30 39.72697 67.53573 34967 ft 440 kts 225°
2026-04-19 07:30 39.70253 67.51180 35098 ft 441 kts 225°
2026-04-19 07:31 39.65372 67.46386 35091 ft 440 kts 225°
2026-04-19 07:31 39.60529 67.41628 35072 ft 440 kts 225°
2026-04-19 07:32 39.55645 67.36847 35063 ft 440 kts 225°
2026-04-19 07:32 39.50762 67.32077 35065 ft 440 kts 225°
2026-04-19 07:33 39.45767 67.27457 35051 ft 448 kts 217°
2026-04-19 07:33 39.40781 67.25196 35060 ft 470 kts 195°
2026-04-19 07:33 39.37468 67.25042 35078 ft 485 kts 182°
2026-04-19 07:34 39.34099 67.25551 35073 ft 487 kts 178°
2026-04-19 07:34 39.27376 67.26758 35042 ft 487 kts 179°
2026-04-19 07:35 39.20637 67.27632 35076 ft 483 kts 186°
2026-04-19 07:35 39.13951 67.27547 35086 ft 479 kts 187°
2026-04-19 07:36 39.07253 67.27578 35091 ft 482 kts 186°
2026-04-19 07:36 39.00599 67.27662 35098 ft 483 kts 186°
2026-04-19 07:37 38.93898 67.27748 35104 ft 481 kts 186°
2026-04-19 07:37 38.87212 67.27834 35108 ft 481 kts 187°
2026-04-19 07:38 38.80518 67.27918 35114 ft 481 kts 187°
2026-04-19 07:38 38.73819 67.28002 35111 ft 481 kts 187°
2026-04-19 07:39 38.67125 67.28087 35116 ft 481 kts 186°
2026-04-19 07:39 38.60433 67.28170 35105 ft 481 kts 187°
2026-04-19 07:40 38.53805 67.28254 35120 ft 478 kts 187°
2026-04-19 07:40 38.47138 67.28330 35130 ft 481 kts 187°
2026-04-19 07:41 38.40426 67.28410 35103 ft 484 kts 187°
2026-04-19 07:41 38.33701 67.28493 35115 ft 484 kts 187°
2026-04-19 07:42 38.26980 67.28576 35117 ft 482 kts 187°
2026-04-19 07:42 38.20263 67.28659 35078 ft 482 kts 187°
2026-04-19 07:43 38.13543 67.28876 35109 ft 485 kts 185°
2026-04-19 07:43 38.06806 67.29283 35103 ft 484 kts 184°
2026-04-19 07:44 38.00118 67.29685 35095 ft 484 kts 184°
2026-04-19 07:44 37.93386 67.30081 35080 ft 485 kts 184°
2026-04-19 07:45 37.86642 67.30483 35083 ft 484 kts 184°
2026-04-19 07:45 37.79921 67.30878 35081 ft 483 kts 185°
2026-04-19 07:46 37.73203 67.31273 35061 ft 482 kts 185°
2026-04-19 07:46 37.66502 67.31664 35066 ft 482 kts 185°
2026-04-19 07:47 37.59800 67.32054 35068 ft 482 kts 185°
2026-04-19 07:47 37.53098 67.32432 35057 ft 484 kts 185°
2026-04-19 07:48 37.46404 67.32822 35070 ft 481 kts 185°
2026-04-19 07:48 37.39709 67.33210 35083 ft 481 kts 185°
2026-04-19 07:49 37.33025 67.33603 35046 ft 481 kts 184°
2026-04-19 07:49 37.26352 67.33996 35052 ft 480 kts 184°
2026-04-19 07:50 37.19736 67.35273 35059 ft 496 kts 166°
2026-04-19 07:50 37.13542 67.39281 35059 ft 504 kts 154°
2026-04-19 07:51 37.07464 67.43641 35049 ft 502 kts 155°
2026-04-19 07:51 37.01354 67.47861 35058 ft 502 kts 156°
2026-04-19 07:52 36.95238 67.52074 35057 ft 502 kts 155°
2026-04-19 07:52 36.89134 67.56298 35058 ft 500 kts 155°
2026-04-19 07:53 36.83041 67.60508 35061 ft 500 kts 156°
2026-04-19 07:53 36.76937 67.64699 35071 ft 500 kts 156°
2026-04-19 07:54 36.70869 67.68872 35069 ft 500 kts 155°
2026-04-19 07:54 36.64781 67.73076 35074 ft 500 kts 155°
2026-04-19 07:55 36.58677 67.77287 35057 ft 502 kts 155°
2026-04-19 07:55 36.52564 67.81488 35045 ft 501 kts 156°
2026-04-19 07:56 36.46476 67.85661 35063 ft 499 kts 156°
2026-04-19 07:56 36.40391 67.89821 35067 ft 499 kts 156°
2026-04-19 07:57 36.34344 67.93948 35074 ft 499 kts 156°
2026-04-19 07:57 36.28259 67.98088 35064 ft 498 kts 156°
2026-04-19 07:58 36.22187 68.02192 35072 ft 497 kts 156°
2026-04-19 07:58 36.16110 68.06326 35076 ft 498 kts 155°
2026-04-19 07:59 36.10041 68.10473 35065 ft 497 kts 156°
2026-04-19 07:59 36.03974 68.14591 35077 ft 497 kts 156°
2026-04-19 08:00 35.97941 68.18659 35085 ft 497 kts 156°
2026-04-19 08:00 35.91884 68.22750 35095 ft 496 kts 156°
2026-04-19 08:01 35.85825 68.26839 35087 ft 496 kts 156°
2026-04-19 08:01 35.79756 68.30915 35084 ft 496 kts 156°
2026-04-19 08:02 35.73691 68.34984 35088 ft 495 kts 156°
2026-04-19 08:02 35.67645 68.39031 35072 ft 494 kts 156°
2026-04-19 08:03 35.61609 68.43072 35085 ft 493 kts 156°
2026-04-19 08:03 35.55612 68.47066 35095 ft 493 kts 156°
2026-04-19 08:04 35.49567 68.51069 35071 ft 493 kts 156°
2026-04-19 08:04 35.43506 68.55083 35113 ft 494 kts 156°
2026-04-19 08:05 35.37446 68.59075 35095 ft 496 kts 156°
2026-04-19 08:05 35.31375 68.63068 35106 ft 495 kts 156°
2026-04-19 08:06 35.25311 68.67063 35100 ft 493 kts 156°
2026-04-19 08:06 35.19268 68.71039 35088 ft 493 kts 156°
2026-04-19 08:07 35.13230 68.74997 35088 ft 493 kts 156°
2026-04-19 08:07 35.07187 68.78951 35044 ft 493 kts 156°
2026-04-19 08:08 35.01159 68.82893 35061 ft 491 kts 156°
2026-04-19 08:08 34.95167 68.86796 35069 ft 491 kts 156°
2026-04-19 08:09 34.89161 68.90711 35034 ft 490 kts 156°
2026-04-19 08:09 34.83143 68.94624 35005 ft 490 kts 156°
2026-04-19 08:10 34.77111 68.98543 35014 ft 490 kts 156°
2026-04-19 08:10 34.71094 69.02436 35017 ft 490 kts 156°
2026-04-19 08:11 34.65089 69.06322 34998 ft 489 kts 156°
2026-04-19 08:11 34.59078 69.10213 35002 ft 489 kts 156°
2026-04-19 08:12 34.53257 69.14475 34985 ft 496 kts 143°
2026-04-19 08:12 34.50840 69.17468 34988 ft 501 kts 129°
2026-04-19 08:12 34.48975 69.21047 35010 ft 502 kts 118°
2026-04-19 08:13 34.45859 69.28589 34990 ft 500 kts 117°
2026-04-19 08:13 34.42725 69.36087 34976 ft 497 kts 117°
2026-04-19 08:14 34.39541 69.43519 34988 ft 496 kts 118°
2026-04-19 08:14 34.34779 69.54659 35010 ft 498 kts 118°
2026-04-19 08:15 34.31603 69.62085 35008 ft 497 kts 118°
2026-04-19 08:15 34.28421 69.69500 35128 ft 495 kts 118°
2026-04-19 08:16 34.25253 69.76884 35251 ft 494 kts 118°
2026-04-19 08:16 34.23669 69.80576 35353 ft 495 kts 118°
2026-04-19 08:16 34.22104 69.84218 35571 ft 495 kts 118°
2026-04-19 08:17 34.20523 69.87890 35831 ft 492 kts 118°
2026-04-19 08:17 34.18948 69.91558 36053 ft 490 kts 118°
2026-04-19 08:17 34.17380 69.95202 36238 ft 489 kts 119°
2026-04-19 08:17 34.15802 69.98840 36380 ft 489 kts 119°
2026-04-19 08:18 34.14214 70.02470 36530 ft 489 kts 119°
2026-04-19 08:18 34.12629 70.06089 36714 ft 488 kts 119°
2026-04-19 08:18 34.11044 70.09707 36894 ft 487 kts 119°
2026-04-19 08:18 34.09457 70.13323 37004 ft 488 kts 119°
2026-04-19 08:19 34.06288 70.20531 37018 ft 486 kts 120°
2026-04-19 08:19 34.03113 70.27727 37000 ft 486 kts 120°
2026-04-19 08:20 33.99963 70.34885 36991 ft 487 kts 120°
2026-04-19 08:20 33.96784 70.42078 36999 ft 485 kts 120°
2026-04-19 08:21 33.93494 70.49164 36984 ft 484 kts 127°
2026-04-19 08:21 33.88948 70.55046 36988 ft 479 kts 140°
2026-04-19 08:22 33.84126 70.60428 36997 ft 475 kts 140°
2026-04-19 08:22 33.79308 70.65876 36978 ft 477 kts 139°
2026-04-19 08:23 33.74500 70.71328 36984 ft 475 kts 140°
2026-04-19 08:23 33.70514 70.75841 36956 ft 476 kts 140°
2026-04-19 08:24 33.65694 70.81283 36962 ft 473 kts 140°
2026-04-19 08:24 33.60887 70.86720 36952 ft 473 kts 140°
2026-04-19 08:25 33.56087 70.92123 36951 ft 472 kts 140°
2026-04-19 08:25 33.51646 70.97963 36935 ft 479 kts 125°
2026-04-19 08:26 33.50121 71.01520 36898 ft 482 kts 112°
2026-04-19 08:26 33.49247 71.05397 36912 ft 485 kts 99°
2026-04-19 08:26 33.49061 71.09438 36926 ft 487 kts 87°
2026-04-19 08:26 33.49301 71.13462 36928 ft 483 kts 85°
2026-04-19 08:27 33.49885 71.21457 36923 ft 485 kts 85°
2026-04-19 08:27 33.50405 71.29513 36913 ft 486 kts 85°
2026-04-19 08:28 33.50899 71.37558 36907 ft 485 kts 85°
2026-04-19 08:28 33.51397 71.45612 36904 ft 483 kts 85°
2026-04-19 08:29 33.51896 71.53664 36902 ft 483 kts 85°
2026-04-19 08:29 33.52386 71.61653 36900 ft 483 kts 86°
2026-04-19 08:30 33.52873 71.69705 36903 ft 484 kts 86°
2026-04-19 08:30 33.53365 71.77753 36900 ft 485 kts 86°
2026-04-19 08:31 33.52895 71.85747 36892 ft 483 kts 107°
2026-04-19 08:31 33.51717 71.89502 36898 ft 480 kts 119°
2026-04-19 08:31 33.50020 71.92919 36904 ft 475 kts 126°
2026-04-19 08:32 33.46368 71.99514 36896 ft 476 kts 126°
2026-04-19 08:32 33.42758 72.06141 36894 ft 476 kts 126°
2026-04-19 08:33 33.39179 72.12772 36885 ft 475 kts 126°
2026-04-19 08:33 33.35592 72.19403 36892 ft 474 kts 126°
2026-04-19 08:34 33.32000 72.26022 36895 ft 474 kts 126°
2026-04-19 08:34 33.28431 72.32581 36896 ft 473 kts 126°
2026-04-19 08:35 33.24828 72.39171 36893 ft 472 kts 126°
2026-04-19 08:35 33.21234 72.45760 36864 ft 472 kts 126°
2026-04-19 08:36 33.17654 72.52330 36893 ft 474 kts 126°
2026-04-19 08:36 33.14063 72.58903 36893 ft 473 kts 126°
2026-04-19 08:37 33.10468 72.65458 36902 ft 472 kts 127°
2026-04-19 08:37 33.06873 72.72001 36901 ft 472 kts 127°
2026-04-19 08:38 33.03273 72.78539 36906 ft 472 kts 127°
2026-04-19 08:38 32.99674 72.85075 36878 ft 471 kts 127°
2026-04-19 08:39 32.96088 72.91582 36883 ft 470 kts 127°
2026-04-19 08:39 32.92479 72.98106 36884 ft 471 kts 127°
2026-04-19 08:40 32.88866 73.04629 36884 ft 472 kts 127°
2026-04-19 08:40 32.85254 73.11133 36880 ft 472 kts 127°
2026-04-19 08:41 32.81641 73.17633 36873 ft 472 kts 127°
2026-04-19 08:41 32.78011 73.24116 36864 ft 470 kts 129°
2026-04-19 08:42 32.73502 73.29603 36863 ft 460 kts 146°
2026-04-19 08:42 32.68414 73.34185 36858 ft 459 kts 147°
2026-04-19 08:43 32.63364 73.38751 36859 ft 460 kts 147°
2026-04-19 08:43 32.58292 73.43375 36858 ft 460 kts 147°
2026-04-19 08:44 32.53231 73.47985 36848 ft 460 kts 147°
2026-04-19 08:44 32.48167 73.52595 36847 ft 460 kts 147°
2026-04-19 08:45 32.43097 73.57202 36849 ft 459 kts 147°
2026-04-19 08:45 32.38033 73.61797 36848 ft 459 kts 147°
2026-04-19 08:46 32.32963 73.66387 36838 ft 460 kts 147°
2026-04-19 08:46 32.27922 73.70951 36844 ft 455 kts 147°
2026-04-19 08:47 32.22886 73.75498 36848 ft 455 kts 147°
2026-04-19 08:47 32.17884 73.80002 36847 ft 455 kts 147°
2026-04-19 08:48 32.12841 73.84542 36847 ft 455 kts 147°
2026-04-19 08:48 32.07807 73.89076 36840 ft 454 kts 148°
2026-04-19 08:49 32.02768 73.93597 36847 ft 454 kts 148°
2026-04-19 08:49 31.97741 73.98103 36844 ft 454 kts 148°
2026-04-19 08:50 31.92704 74.02611 36847 ft 454 kts 148°
2026-04-19 08:50 31.87709 74.07077 36841 ft 454 kts 148°
2026-04-19 08:51 31.82702 74.11609 36829 ft 456 kts 147°
2026-04-19 08:51 31.77730 74.16210 36834 ft 454 kts 147°
2026-04-19 08:52 31.72764 74.20803 36834 ft 455 kts 147°
2026-04-19 08:52 31.67824 74.25358 36827 ft 454 kts 147°
2026-04-19 08:53 31.62851 74.29948 36816 ft 455 kts 147°
2026-04-19 08:53 31.57841 74.34559 36844 ft 455 kts 147°
2026-04-19 08:54 31.52863 74.39140 36848 ft 453 kts 147°
2026-04-19 08:54 31.47985 74.43772 36846 ft 454 kts 146°
2026-04-19 08:55 31.43108 74.48458 36844 ft 453 kts 146°
2026-04-19 08:55 31.38221 74.53141 36824 ft 454 kts 146°
2026-04-19 08:56 31.33384 74.57939 36821 ft 457 kts 142°
2026-04-19 08:56 31.28741 74.63050 36813 ft 457 kts 141°
2026-04-19 08:57 31.24111 74.68147 36802 ft 457 kts 141°
2026-04-19 08:57 31.19478 74.73232 36802 ft 458 kts 141°
2026-04-19 08:58 31.14863 74.78294 36781 ft 458 kts 142°
2026-04-19 08:58 31.10206 74.83394 36798 ft 457 kts 142°
2026-04-19 08:59 31.05551 74.88484 36789 ft 458 kts 142°
2026-04-19 08:59 31.00906 74.93557 36790 ft 457 kts 142°
2026-04-19 09:00 30.96252 74.98635 36794 ft 458 kts 142°
2026-04-19 09:00 30.91597 75.03700 36780 ft 458 kts 142°
2026-04-19 09:01 30.86924 75.08771 36781 ft 458 kts 142°
2026-04-19 09:01 30.82253 75.13838 36780 ft 460 kts 142°
2026-04-19 09:02 30.78197 75.19593 36785 ft 470 kts 128°
2026-04-19 09:02 30.74637 75.25961 36767 ft 469 kts 127°
2026-04-19 09:03 30.71055 75.32299 36770 ft 469 kts 128°
2026-04-19 09:03 30.67456 75.38618 36748 ft 468 kts 128°
2026-04-19 09:04 30.63848 75.44950 36752 ft 471 kts 128°
2026-04-19 09:04 30.60238 75.51274 36753 ft 470 kts 128°
2026-04-19 09:05 30.56617 75.57584 36749 ft 469 kts 128°
2026-04-19 09:05 30.52999 75.63891 36751 ft 469 kts 128°
2026-04-19 09:06 30.49385 75.70193 36738 ft 470 kts 128°
2026-04-19 09:06 30.45792 75.76442 36736 ft 469 kts 128°
2026-04-19 09:07 30.42161 75.82729 36735 ft 469 kts 129°
2026-04-19 09:07 30.38527 75.89018 36728 ft 469 kts 129°
2026-04-19 09:08 30.34901 75.95285 36726 ft 468 kts 129°
2026-04-19 09:08 30.31272 76.01562 36729 ft 469 kts 129°
2026-04-19 09:09 30.27640 76.07827 36727 ft 468 kts 129°
2026-04-19 09:09 30.24007 76.14085 36730 ft 469 kts 129°
2026-04-19 09:10 30.20358 76.20366 36726 ft 472 kts 129°
2026-04-19 09:10 30.16732 76.26591 36735 ft 469 kts 129°
2026-04-19 09:11 30.13078 76.32846 36734 ft 469 kts 129°
2026-04-19 09:11 30.09428 76.39083 36737 ft 469 kts 129°
2026-04-19 09:12 30.06364 76.44316 36737 ft 470 kts 129°
2026-04-19 09:12 30.02729 76.50520 36729 ft 469 kts 129°
2026-04-19 09:13 29.99059 76.56784 36737 ft 471 kts 129°
2026-04-19 09:13 29.95367 76.63072 36731 ft 474 kts 130°
2026-04-19 09:14 29.91681 76.69343 36736 ft 472 kts 130°
2026-04-19 09:14 29.87983 76.75606 36736 ft 472 kts 130°
2026-04-19 09:15 29.84291 76.81862 36745 ft 472 kts 130°
2026-04-19 09:16 29.78754 76.91232 36743 ft 475 kts 130°
2026-04-19 09:16 29.75045 76.97495 36727 ft 474 kts 130°
2026-04-19 09:17 29.71320 77.03766 36743 ft 474 kts 130°
2026-04-19 09:17 29.67590 77.10044 36744 ft 474 kts 130°
2026-04-19 09:18 29.63859 77.16321 36744 ft 475 kts 130°
2026-04-19 09:18 29.60123 77.22576 36746 ft 475 kts 130°
2026-04-19 09:19 29.56378 77.28837 36744 ft 475 kts 130°
2026-04-19 09:19 29.52661 77.35048 36746 ft 475 kts 130°
2026-04-19 09:20 29.48911 77.41302 36735 ft 476 kts 131°
2026-04-19 09:20 29.45157 77.47563 36745 ft 475 kts 131°
2026-04-19 09:21 29.41402 77.53799 36743 ft 475 kts 131°
2026-04-19 09:21 29.37645 77.60052 36734 ft 476 kts 130°
2026-04-19 09:22 29.33906 77.66296 36740 ft 477 kts 131°
2026-04-19 09:22 29.30169 77.72495 36740 ft 475 kts 131°
2026-04-19 09:23 29.26408 77.78713 36718 ft 474 kts 131°
2026-04-19 09:23 29.22626 77.84958 36732 ft 477 kts 131°
2026-04-19 09:24 29.18847 77.91191 36741 ft 477 kts 131°
2026-04-19 09:24 29.15067 77.97414 36735 ft 477 kts 131°
2026-04-19 09:25 29.11275 78.03655 36740 ft 479 kts 131°
2026-04-19 09:25 29.07480 78.09885 36736 ft 477 kts 131°
2026-04-19 09:26 29.03706 78.16075 36734 ft 477 kts 131°
2026-04-19 09:26 28.99907 78.22291 36710 ft 479 kts 131°
2026-04-19 09:27 28.96083 78.28540 36721 ft 477 kts 131°
2026-04-19 09:27 28.92267 78.34767 36726 ft 477 kts 131°
2026-04-19 09:28 28.88448 78.40991 36719 ft 477 kts 131°
2026-04-19 09:28 28.84627 78.47198 36718 ft 478 kts 131°
2026-04-19 09:29 28.80807 78.53411 36715 ft 478 kts 131°
2026-04-19 09:29 28.76984 78.59610 36717 ft 478 kts 131°
2026-04-19 09:30 28.73158 78.65789 36711 ft 477 kts 132°
2026-04-19 09:30 28.69327 78.71980 36707 ft 480 kts 132°
2026-04-19 09:31 28.65484 78.78184 36710 ft 479 kts 132°
2026-04-19 09:31 28.61645 78.84371 36703 ft 478 kts 132°
2026-04-19 09:32 28.57801 78.90566 36698 ft 479 kts 132°
2026-04-19 09:32 28.53959 78.96748 36696 ft 478 kts 132°
2026-04-19 09:33 28.50136 79.02894 36677 ft 478 kts 132°
2026-04-19 09:33 28.46298 79.09070 36685 ft 480 kts 132°
2026-04-19 09:34 28.42425 79.15265 36685 ft 480 kts 132°
2026-04-19 09:34 28.38557 79.21461 36680 ft 480 kts 132°
2026-04-19 09:35 28.34692 79.27637 36678 ft 479 kts 132°
2026-04-19 09:35 28.30814 79.33803 36678 ft 479 kts 133°
2026-04-19 09:36 28.26950 79.39929 36677 ft 480 kts 132°
2026-04-19 09:36 28.23035 79.46152 36649 ft 484 kts 133°
2026-04-19 09:37 28.19128 79.52367 36664 ft 482 kts 133°
2026-04-19 09:37 28.15241 79.58526 36665 ft 483 kts 133°
2026-04-19 09:38 28.11326 79.64718 36663 ft 484 kts 133°
2026-04-19 09:38 28.07413 79.70907 36667 ft 484 kts 133°
2026-04-19 09:39 28.03499 79.77087 36667 ft 484 kts 133°
2026-04-19 09:39 27.99565 79.83265 36663 ft 486 kts 133°
2026-04-19 09:40 27.95631 79.89467 36666 ft 485 kts 133°
2026-04-19 09:40 27.91705 79.95671 36668 ft 484 kts 133°
2026-04-19 09:41 27.87772 80.01848 36673 ft 484 kts 133°
2026-04-19 09:41 27.83853 80.07975 36672 ft 483 kts 133°
2026-04-19 09:42 27.79907 80.14157 36672 ft 484 kts 133°
2026-04-19 09:42 27.75954 80.20333 36666 ft 486 kts 133°
2026-04-19 09:43 27.71989 80.26530 36656 ft 487 kts 134°
2026-04-19 09:43 27.67993 80.32756 36673 ft 488 kts 134°
2026-04-19 09:44 27.64004 80.38959 36672 ft 487 kts 134°
2026-04-19 09:44 27.60020 80.45150 36674 ft 488 kts 134°
2026-04-19 09:45 27.56051 80.51294 36679 ft 488 kts 134°
2026-04-19 09:45 27.52050 80.57478 36672 ft 490 kts 134°
2026-04-19 09:46 27.48042 80.63674 36675 ft 489 kts 134°
2026-04-19 09:46 27.44028 80.69879 36664 ft 490 kts 134°
2026-04-19 09:47 27.40006 80.76084 36681 ft 489 kts 134°
2026-04-19 09:47 27.35987 80.82263 36679 ft 490 kts 134°
2026-04-19 09:48 27.31992 80.88416 36677 ft 489 kts 134°
2026-04-19 09:48 27.27973 80.94605 36677 ft 492 kts 134°
2026-04-19 09:49 27.23943 81.00802 36686 ft 491 kts 134°
2026-04-19 09:49 27.19902 81.06993 36687 ft 491 kts 134°
2026-04-19 09:50 27.15867 81.13172 36682 ft 491 kts 135°
2026-04-19 09:50 27.11824 81.19345 36685 ft 490 kts 135°
2026-04-19 09:51 27.07764 81.25503 36684 ft 490 kts 135°
2026-04-19 09:51 27.03726 81.31640 36679 ft 492 kts 135°
2026-04-19 09:52 26.99664 81.37816 36671 ft 493 kts 135°
2026-04-19 09:52 26.95598 81.43995 36682 ft 492 kts 135°
2026-04-19 09:53 26.91597 81.50253 36654 ft 493 kts 133°
2026-04-19 09:53 26.87665 81.56589 36668 ft 496 kts 133°
2026-04-19 09:54 26.83749 81.62886 36678 ft 496 kts 133°
2026-04-19 09:54 26.79807 81.69206 36667 ft 497 kts 133°
2026-04-19 09:55 26.75855 81.75529 36667 ft 495 kts 133°
2026-04-19 09:55 26.71908 81.81837 36668 ft 495 kts 133°
2026-04-19 09:56 26.67959 81.88146 36671 ft 495 kts 133°
2026-04-19 09:56 26.64008 81.94446 36637 ft 495 kts 133°
2026-04-19 09:57 26.60030 82.00764 36662 ft 497 kts 133°
2026-04-19 09:57 26.56071 82.07096 36671 ft 497 kts 133°
2026-04-19 09:58 26.52105 82.13402 36666 ft 497 kts 133°
2026-04-19 09:58 26.48142 82.19700 36670 ft 497 kts 133°
2026-04-19 09:59 26.44195 82.25959 36673 ft 495 kts 134°
2026-04-19 09:59 26.40221 82.32239 36668 ft 495 kts 134°
2026-04-19 10:00 26.36907 82.37456 36671 ft 496 kts 134°
2026-04-19 10:00 26.32898 82.43741 36659 ft 500 kts 134°
2026-04-19 10:01 26.28254 82.51070 36675 ft 499 kts 133°
2026-04-19 10:01 26.24909 82.56355 36676 ft 497 kts 134°
2026-04-19 10:02 26.20912 82.62637 36682 ft 497 kts 134°
2026-04-19 10:02 26.16915 82.68924 36676 ft 498 kts 134°
2026-04-19 10:03 26.12928 82.75164 36672 ft 497 kts 134°
2026-04-19 10:03 26.08911 82.81435 36664 ft 499 kts 134°
2026-04-19 10:04 26.04893 82.87699 36671 ft 496 kts 134°
2026-04-19 10:04 26.00882 82.93960 36672 ft 496 kts 134°
2026-04-19 10:05 25.96867 83.00208 36673 ft 496 kts 134°
2026-04-19 10:05 25.92859 83.06458 36672 ft 496 kts 134°
2026-04-19 10:06 25.88846 83.12696 36672 ft 496 kts 134°
2026-04-19 10:06 25.84834 83.18930 36669 ft 498 kts 134°
2026-04-19 10:07 25.80825 83.25117 36671 ft 497 kts 134°
2026-04-19 10:07 25.76836 83.31388 36661 ft 496 kts 133°
2026-04-19 10:08 25.72923 83.37709 36664 ft 496 kts 133°
2026-04-19 10:08 25.69007 83.44016 36665 ft 496 kts 133°
2026-04-19 10:09 25.65088 83.50317 36666 ft 497 kts 133°
2026-04-19 10:09 25.61187 83.56578 36667 ft 498 kts 133°
2026-04-19 10:10 25.57275 83.62908 36666 ft 497 kts 133°
2026-04-19 10:10 25.53342 83.69215 36665 ft 497 kts 133°
2026-04-19 10:11 25.49409 83.75510 36649 ft 498 kts 133°
2026-04-19 10:11 25.45442 83.81792 36664 ft 497 kts 133°
2026-04-19 10:12 25.41486 83.88084 36662 ft 497 kts 133°
2026-04-19 10:12 25.37550 83.94386 36662 ft 500 kts 133°
2026-04-19 10:13 25.33629 84.00673 36666 ft 499 kts 133°
2026-04-19 10:13 25.29669 84.06975 36666 ft 498 kts 133°
2026-04-19 10:14 25.25701 84.13269 36670 ft 498 kts 133°
2026-04-19 10:14 25.21728 84.19550 36670 ft 499 kts 133°
2026-04-19 10:15 25.17769 84.25839 36664 ft 499 kts 133°
2026-04-19 10:15 25.13786 84.32124 36669 ft 500 kts 133°
2026-04-19 10:16 25.09804 84.38415 36666 ft 500 kts 133°
2026-04-19 10:16 25.05822 84.44706 36667 ft 499 kts 133°
2026-04-19 10:17 25.01842 84.50981 36667 ft 499 kts 133°
2026-04-19 10:17 24.97848 84.57246 36664 ft 499 kts 133°
2026-04-19 10:18 24.93855 84.63512 36664 ft 499 kts 133°
2026-04-19 10:18 24.89893 84.69755 36649 ft 502 kts 133°
2026-04-19 10:19 24.83874 84.79162 36643 ft 501 kts 133°
2026-04-19 10:19 24.79867 84.85433 36641 ft 501 kts 133°
2026-04-19 10:20 24.75856 84.91693 36639 ft 501 kts 133°
2026-04-19 10:20 24.71892 84.97996 36638 ft 501 kts 132°
2026-04-19 10:21 24.67983 85.04351 36642 ft 502 kts 131°
2026-04-19 10:21 24.64059 85.10720 36650 ft 502 kts 131°
2026-04-19 10:22 24.60171 85.17028 36673 ft 502 kts 131°
2026-04-19 10:22 24.56244 85.23380 36697 ft 502 kts 131°
2026-04-19 10:23 24.52323 85.29724 36702 ft 504 kts 131°
2026-04-19 10:23 24.48399 85.36059 36700 ft 502 kts 131°
2026-04-19 10:24 24.44466 85.42392 36701 ft 501 kts 131°
2026-04-19 10:24 24.40548 85.48690 36719 ft 502 kts 131°
2026-04-19 10:25 24.36610 85.55005 36722 ft 502 kts 131°
2026-04-19 10:25 24.32675 85.61330 36723 ft 502 kts 131°
2026-04-19 10:26 24.28736 85.67649 36739 ft 501 kts 131°
2026-04-19 10:26 24.24801 85.73950 36730 ft 501 kts 131°
2026-04-19 10:27 24.20881 85.80277 36736 ft 502 kts 131°
2026-04-19 10:27 24.16947 85.86578 36744 ft 501 kts 131°
2026-04-19 10:28 24.13004 85.92874 36739 ft 501 kts 131°
2026-04-19 10:28 24.09061 85.99157 36746 ft 500 kts 131°
2026-04-19 10:29 24.05144 86.05394 36751 ft 500 kts 131°
2026-04-19 10:29 24.01190 86.11672 36733 ft 501 kts 131°
2026-04-19 10:30 23.97254 86.17932 36742 ft 500 kts 131°
2026-04-19 10:30 23.93323 86.24157 36743 ft 493 kts 131°
2026-04-19 10:31 23.89420 86.30344 36746 ft 495 kts 131°
2026-04-19 10:31 23.85505 86.36522 36726 ft 495 kts 131°
2026-04-19 10:32 23.81584 86.42721 36718 ft 496 kts 130°
2026-04-19 10:32 23.77966 86.49107 36699 ft 498 kts 128°
2026-04-19 10:33 23.74386 86.55581 36700 ft 498 kts 128°
2026-04-19 10:33 23.70791 86.62060 36668 ft 498 kts 128°
2026-04-19 10:34 23.67220 86.68493 36680 ft 495 kts 128°
2026-04-19 10:34 23.63640 86.74916 36684 ft 495 kts 128°
2026-04-19 10:35 23.60063 86.81349 36683 ft 497 kts 128°
2026-04-19 10:35 23.56469 86.87762 36677 ft 495 kts 128°
2026-04-19 10:36 23.52885 86.94162 36678 ft 495 kts 128°
2026-04-19 10:36 23.49302 87.00562 36674 ft 495 kts 127°
2026-04-19 10:37 23.45716 87.06966 36675 ft 494 kts 127°
2026-04-19 10:37 23.42137 87.13362 36678 ft 495 kts 127°
2026-04-19 10:38 23.38578 87.19724 36653 ft 495 kts 127°
2026-04-19 10:38 23.34986 87.26116 36664 ft 495 kts 127°
2026-04-19 10:39 23.31399 87.32518 36671 ft 495 kts 127°
2026-04-19 10:39 23.27811 87.38901 36678 ft 494 kts 127°
2026-04-19 10:40 23.24227 87.45267 36690 ft 494 kts 127°
2026-04-19 10:40 23.20640 87.51647 36690 ft 494 kts 127°
2026-04-19 10:41 23.17035 87.58020 36698 ft 493 kts 127°
2026-04-19 10:41 23.13440 87.64393 36699 ft 494 kts 127°
2026-04-19 10:42 23.09882 87.70712 36699 ft 493 kts 127°
2026-04-19 10:42 23.06249 87.77113 36699 ft 502 kts 126°
2026-04-19 10:43 23.02557 87.83615 36707 ft 507 kts 126°
2026-04-19 10:43 22.98862 87.90138 36700 ft 507 kts 126°
2026-04-19 10:44 22.95155 87.96650 36701 ft 507 kts 126°
2026-04-19 10:44 22.91447 88.03174 36703 ft 507 kts 126°
2026-04-19 10:45 22.87731 88.09679 36695 ft 507 kts 126°
2026-04-19 10:45 22.84061 88.16124 36704 ft 505 kts 126°
2026-04-19 10:46 22.80357 88.22599 36704 ft 505 kts 126°
2026-04-19 10:46 22.76650 88.29067 36691 ft 504 kts 126°
2026-04-19 10:47 22.72970 88.35497 36699 ft 501 kts 126°
2026-04-19 10:47 22.69316 88.41867 36697 ft 501 kts 126°
2026-04-19 10:48 22.65447 88.48123 36700 ft 498 kts 130°
2026-04-19 10:48 22.61426 88.54226 36696 ft 497 kts 130°
2026-04-19 10:49 22.57416 88.60324 36708 ft 497 kts 130°
2026-04-19 10:49 22.53398 88.66415 36716 ft 497 kts 130°
2026-04-19 10:50 22.50057 88.71470 36725 ft 497 kts 130°
2026-04-19 10:50 22.46033 88.77556 36732 ft 497 kts 130°
2026-04-19 10:51 22.42023 88.83609 36732 ft 494 kts 130°
2026-04-19 10:51 22.38021 88.89655 36733 ft 495 kts 130°
2026-04-19 10:52 22.34010 88.95701 36736 ft 495 kts 130°
2026-04-19 10:52 22.30015 89.01757 36735 ft 496 kts 128°
2026-04-19 10:53 22.26169 89.07958 36738 ft 496 kts 128°
2026-04-19 10:53 22.22334 89.14149 36737 ft 497 kts 128°
2026-04-19 10:54 22.18506 89.20361 36744 ft 496 kts 128°
2026-04-19 10:54 22.14676 89.26568 36744 ft 497 kts 128°
2026-04-19 10:55 22.10841 89.32771 36744 ft 497 kts 128°
2026-04-19 10:55 22.07015 89.38941 36745 ft 497 kts 128°
2026-04-19 10:56 22.03166 89.45152 36752 ft 497 kts 128°
2026-04-19 10:56 21.99323 89.51351 36751 ft 497 kts 128°
2026-04-19 10:57 21.95475 89.57543 36752 ft 497 kts 128°
2026-04-19 10:57 21.91631 89.63731 36752 ft 497 kts 128°
2026-04-19 10:58 21.87779 89.69925 36755 ft 497 kts 128°
2026-04-19 10:58 21.83932 89.76107 36755 ft 497 kts 128°
2026-04-19 10:59 21.80073 89.82280 36745 ft 497 kts 128°
2026-04-19 10:59 21.76210 89.88455 36757 ft 497 kts 128°
2026-04-19 11:00 21.72346 89.94622 36760 ft 497 kts 128°
2026-04-19 11:00 21.68528 90.00755 36758 ft 498 kts 128°
2026-04-19 11:01 21.64666 90.06937 36763 ft 498 kts 128°
2026-04-19 11:01 21.60795 90.13116 36761 ft 498 kts 128°
2026-04-19 11:02 21.56918 90.19286 36761 ft 498 kts 128°
2026-04-19 11:02 21.53039 90.25452 36760 ft 498 kts 128°
2026-04-19 11:03 21.49147 90.31621 36767 ft 498 kts 128°
2026-04-19 11:03 21.45264 90.37787 36763 ft 497 kts 128°
2026-04-19 11:04 21.41414 90.43893 36763 ft 497 kts 128°
2026-04-19 11:04 21.37535 90.50026 36769 ft 497 kts 128°
2026-04-19 11:05 21.33654 90.56159 36771 ft 497 kts 128°
2026-04-19 11:05 21.29768 90.62299 36773 ft 497 kts 128°
2026-04-19 11:06 21.25889 90.68440 36773 ft 497 kts 128°
2026-04-19 11:06 21.22032 90.74521 36773 ft 496 kts 128°
2026-04-19 11:07 21.18118 90.80682 36775 ft 497 kts 128°
2026-04-19 11:07 21.14246 90.86781 36775 ft 497 kts 128°
2026-04-19 11:08 21.10360 90.92904 36777 ft 497 kts 128°
2026-04-19 11:08 21.06467 90.99016 36778 ft 496 kts 128°
2026-04-19 11:09 21.02570 91.05123 36782 ft 496 kts 128°
2026-04-19 11:09 20.98680 91.11230 36783 ft 496 kts 128°
2026-04-19 11:10 20.94775 91.17324 36782 ft 497 kts 128°
2026-04-19 11:10 20.90871 91.23438 36784 ft 498 kts 128°
2026-04-19 11:11 20.86965 91.29549 36785 ft 497 kts 128°
2026-04-19 11:11 20.83049 91.35658 36785 ft 497 kts 128°
2026-04-19 11:12 20.79163 91.41720 36777 ft 497 kts 128°
2026-04-19 11:12 20.75247 91.47788 36784 ft 496 kts 128°
2026-04-19 11:13 20.71332 91.53865 36782 ft 496 kts 128°
2026-04-19 11:13 20.67428 91.59944 36784 ft 497 kts 128°
2026-04-19 11:14 20.63517 91.66023 36784 ft 497 kts 128°
2026-04-19 11:14 20.59607 91.72104 36787 ft 497 kts 128°
2026-04-19 11:15 20.55686 91.78175 36788 ft 497 kts 128°
2026-04-19 11:15 20.51766 91.84240 36788 ft 497 kts 128°
2026-04-19 11:16 20.47849 91.90305 36787 ft 497 kts 128°
2026-04-19 11:16 20.43928 91.96359 36783 ft 494 kts 128°
2026-04-19 11:17 20.40005 92.02386 36790 ft 494 kts 128°
2026-04-19 11:17 20.36036 92.08375 36790 ft 494 kts 129°
2026-04-19 11:18 20.32088 92.14328 36793 ft 494 kts 128°
2026-04-19 11:18 20.28128 92.20318 36794 ft 494 kts 128°
2026-04-19 11:19 20.24168 92.26300 36792 ft 494 kts 128°
2026-04-19 11:19 20.20205 92.32277 36787 ft 494 kts 128°
2026-04-19 11:20 20.16248 92.38251 36787 ft 494 kts 128°
2026-04-19 11:20 20.12303 92.44199 36786 ft 494 kts 128°
2026-04-19 11:21 20.08360 92.50160 36785 ft 492 kts 128°
2026-04-19 11:22 20.02440 92.59071 36788 ft 492 kts 128°
2026-04-19 11:22 19.98484 92.65014 36786 ft 492 kts 128°
2026-04-19 11:23 19.94525 92.70948 36788 ft 493 kts 128°
2026-04-19 11:23 19.90558 92.76894 36787 ft 493 kts 128°
2026-04-19 11:24 19.86587 92.82834 36787 ft 493 kts 128°
2026-04-19 11:24 19.82617 92.88776 36787 ft 493 kts 128°
2026-04-19 11:25 19.78642 92.94709 36786 ft 493 kts 128°
2026-04-19 11:25 19.74673 93.00637 36786 ft 491 kts 128°
2026-04-19 11:26 19.70735 93.06504 36791 ft 492 kts 128°
2026-04-19 11:26 19.66752 93.12420 36788 ft 493 kts 128°
2026-04-19 11:27 19.62747 93.18378 36787 ft 493 kts 128°
2026-04-19 11:27 19.58795 93.24263 36785 ft 493 kts 128°
2026-04-19 11:28 19.54811 93.30188 36786 ft 493 kts 128°
2026-04-19 11:28 19.50819 93.36102 36789 ft 493 kts 128°
2026-04-19 11:29 19.46830 93.42016 36790 ft 493 kts 128°
2026-04-19 11:29 19.42843 93.47922 36791 ft 493 kts 128°
2026-04-19 11:30 19.38863 93.53811 36803 ft 491 kts 128°
2026-04-19 11:30 19.34890 93.59697 36796 ft 491 kts 128°
2026-04-19 11:31 19.30912 93.65575 36792 ft 491 kts 128°
2026-04-19 11:31 19.26931 93.71446 36788 ft 491 kts 128°
2026-04-19 11:32 19.22949 93.77317 36786 ft 491 kts 128°
2026-04-19 11:32 19.18957 93.83190 36791 ft 492 kts 128°
2026-04-19 11:33 19.14989 93.89033 36797 ft 492 kts 128°
2026-04-19 11:33 19.10994 93.94904 36805 ft 492 kts 128°
2026-04-19 11:34 19.06998 94.00773 36784 ft 491 kts 128°
2026-04-19 11:34 19.03689 94.05626 36797 ft 489 kts 128°
2026-04-19 11:35 18.99030 94.12452 36798 ft 489 kts 128°
2026-04-19 11:35 18.95718 94.17295 36807 ft 489 kts 128°
2026-04-19 11:36 18.91730 94.23129 36802 ft 489 kts 128°
2026-04-19 11:36 18.87741 94.28968 36813 ft 489 kts 128°
2026-04-19 11:37 18.83749 94.34791 36820 ft 489 kts 128°
2026-04-19 11:37 18.79760 94.40615 36821 ft 489 kts 128°
2026-04-19 11:38 18.75759 94.46451 36829 ft 490 kts 128°
2026-04-19 11:38 18.71759 94.52268 36822 ft 490 kts 128°
2026-04-19 11:39 18.67757 94.58091 36812 ft 490 kts 128°
2026-04-19 11:39 18.63772 94.63882 36819 ft 491 kts 128°
2026-04-19 11:40 18.59750 94.69725 36814 ft 493 kts 128°
2026-04-19 11:40 18.55800 94.75610 36804 ft 493 kts 126°
2026-04-19 11:41 18.51912 94.81542 36815 ft 491 kts 127°
2026-04-19 11:41 18.48025 94.87459 36812 ft 491 kts 127°
2026-04-19 11:42 18.44129 94.93384 36792 ft 491 kts 127°
2026-04-19 11:42 18.40232 94.99302 36787 ft 492 kts 126°
2026-04-19 11:43 18.36328 95.05221 36753 ft 490 kts 126°
2026-04-19 11:43 18.32447 95.11113 36757 ft 489 kts 126°
2026-04-19 11:44 18.28492 95.16944 36754 ft 488 kts 128°
2026-04-19 11:44 18.24454 95.22639 36731 ft 488 kts 128°
2026-04-19 11:45 18.20388 95.28373 36739 ft 488 kts 128°
2026-04-19 11:45 18.16321 95.34097 36721 ft 489 kts 128°
2026-04-19 11:46 18.12238 95.39841 36727 ft 489 kts 128°
2026-04-19 11:46 18.08182 95.45533 36729 ft 489 kts 128°
2026-04-19 11:47 18.04102 95.51258 36735 ft 489 kts 128°
2026-04-19 11:47 18.00022 95.56984 36727 ft 488 kts 128°
2026-04-19 11:48 17.95964 95.62673 36725 ft 486 kts 128°
2026-04-19 11:48 17.91902 95.68358 36739 ft 486 kts 128°
2026-04-19 11:49 17.87834 95.74055 36739 ft 488 kts 128°
2026-04-19 11:49 17.83757 95.79751 36738 ft 488 kts 128°
2026-04-19 11:50 17.79678 95.85448 36735 ft 488 kts 128°
2026-04-19 11:50 17.75640 95.91114 36742 ft 488 kts 128°
2026-04-19 11:51 17.71564 95.96802 36743 ft 488 kts 128°
2026-04-19 11:51 17.67477 96.02498 36738 ft 488 kts 128°
2026-04-19 11:52 17.63402 96.08180 36736 ft 486 kts 128°
2026-04-19 11:52 17.59334 96.13835 36732 ft 486 kts 128°
2026-04-19 11:53 17.55267 96.19496 36734 ft 486 kts 128°
2026-04-19 11:53 17.51196 96.25156 36737 ft 486 kts 128°
2026-04-19 11:54 17.47121 96.30817 36735 ft 486 kts 128°
2026-04-19 11:54 17.43067 96.36432 36736 ft 486 kts 128°
2026-04-19 11:55 17.38988 96.42085 36735 ft 486 kts 128°
2026-04-19 11:55 17.34906 96.47738 36732 ft 486 kts 128°
2026-04-19 11:56 17.30816 96.53385 36743 ft 487 kts 128°
2026-04-19 11:56 17.26669 96.58983 36743 ft 485 kts 128°
2026-04-19 11:57 17.22542 96.64564 36744 ft 485 kts 128°
2026-04-19 11:57 17.18418 96.70147 36756 ft 485 kts 128°
2026-04-19 11:58 17.14314 96.75696 36756 ft 485 kts 128°
2026-04-19 11:58 17.10182 96.81275 36756 ft 485 kts 128°
2026-04-19 11:59 17.06041 96.86854 36758 ft 486 kts 128°
2026-04-19 11:59 17.01900 96.92442 36762 ft 486 kts 128°
2026-04-19 12:00 16.97756 96.98023 36761 ft 486 kts 128°
2026-04-19 12:00 16.93609 97.03601 36764 ft 486 kts 128°
2026-04-19 12:01 16.89491 97.09133 36768 ft 484 kts 128°
2026-04-19 12:01 16.85356 97.14696 36764 ft 484 kts 128°
2026-04-19 12:02 16.81221 97.20252 36763 ft 484 kts 128°
2026-04-19 12:02 16.77086 97.25802 36767 ft 484 kts 128°
2026-04-19 12:03 16.72944 97.31348 36766 ft 484 kts 128°
2026-04-19 12:03 16.68804 97.36894 36768 ft 484 kts 128°
2026-04-19 12:04 16.64655 97.42444 36765 ft 484 kts 128°
2026-04-19 12:04 16.60510 97.47993 36771 ft 484 kts 128°
2026-04-19 12:05 16.56394 97.53496 36773 ft 484 kts 128°
2026-04-19 12:05 16.52260 97.59015 36769 ft 482 kts 128°
2026-04-19 12:06 16.48131 97.64522 36772 ft 482 kts 128°
2026-04-19 12:06 16.44001 97.70026 36769 ft 482 kts 128°
2026-04-19 12:07 16.39866 97.75533 36772 ft 482 kts 128°
2026-04-19 12:07 16.35491 97.80819 36768 ft 482 kts 138°
2026-04-19 12:08 16.30460 97.85359 36774 ft 482 kts 140°
2026-04-19 12:08 16.25378 97.89899 36774 ft 482 kts 140°
2026-04-19 12:09 16.20299 97.94464 36771 ft 481 kts 140°
2026-04-19 12:09 16.15236 97.99018 36773 ft 481 kts 139°
2026-04-19 12:10 16.10172 98.03576 36741 ft 481 kts 139°
2026-04-19 12:10 16.07635 98.05858 36561 ft 481 kts 139°
2026-04-19 12:10 16.05102 98.08135 36337 ft 482 kts 139°
2026-04-19 12:10 16.02593 98.10385 36105 ft 482 kts 139°
2026-04-19 12:11 16.00055 98.12663 35862 ft 483 kts 139°
2026-04-19 12:11 15.97508 98.14949 35623 ft 484 kts 139°
2026-04-19 12:11 15.94951 98.17239 35384 ft 485 kts 139°
2026-04-19 12:11 15.92395 98.19527 35152 ft 486 kts 139°
2026-04-19 12:12 15.89833 98.21818 34925 ft 486 kts 139°
2026-04-19 12:12 15.87272 98.24112 34783 ft 487 kts 139°
2026-04-19 12:12 15.84702 98.26416 34762 ft 488 kts 139°
2026-04-19 12:13 15.79567 98.31012 34784 ft 487 kts 139°
2026-04-19 12:13 15.74437 98.35598 34807 ft 487 kts 139°
2026-04-19 12:14 15.69299 98.40190 34811 ft 487 kts 139°
2026-04-19 12:14 15.64155 98.44780 34809 ft 487 kts 139°
2026-04-19 12:15 15.59046 98.49339 34820 ft 487 kts 139°
2026-04-19 12:15 15.53906 98.53923 34823 ft 487 kts 139°
2026-04-19 12:16 15.48773 98.58526 34823 ft 487 kts 137°
2026-04-19 12:16 15.44346 98.63815 34824 ft 484 kts 128°
2026-04-19 12:17 15.40124 98.69253 34829 ft 484 kts 128°
2026-04-19 12:17 15.35889 98.74676 34829 ft 485 kts 128°
2026-04-19 12:18 15.31630 98.80109 34819 ft 486 kts 128°
2026-04-19 12:18 15.27390 98.85502 34821 ft 486 kts 128°
2026-04-19 12:19 15.23135 98.90931 34825 ft 485 kts 128°
2026-04-19 12:19 15.18707 98.96208 34806 ft 485 kts 131°
2026-04-19 12:20 15.14154 99.01370 34799 ft 485 kts 131°
2026-04-19 12:20 15.09626 99.06547 34797 ft 485 kts 131°
2026-04-19 12:21 15.05101 99.11737 34784 ft 485 kts 131°
2026-04-19 12:21 15.00575 99.16921 34785 ft 486 kts 131°
2026-04-19 12:22 14.96809 99.21227 34778 ft 486 kts 131°
2026-04-19 12:22 14.92276 99.26406 34771 ft 485 kts 131°
2026-04-19 12:23 14.87746 99.31578 34763 ft 485 kts 131°
2026-04-19 12:23 14.83210 99.36750 34761 ft 485 kts 131°
2026-04-19 12:24 14.78677 99.41921 34747 ft 485 kts 131°
2026-04-19 12:24 14.74165 99.47058 34754 ft 485 kts 131°
2026-04-19 12:25 14.69634 99.52214 34748 ft 484 kts 131°
2026-04-19 12:25 14.65108 99.57371 34737 ft 484 kts 131°
2026-04-19 12:26 14.60571 99.62533 34740 ft 484 kts 131°
2026-04-19 12:26 14.56065 99.67656 34743 ft 484 kts 131°
2026-04-19 12:27 14.51530 99.72800 34730 ft 484 kts 131°
2026-04-19 12:27 14.46990 99.77954 34732 ft 484 kts 131°
2026-04-19 12:28 14.40188 99.85673 34734 ft 485 kts 131°
2026-04-19 12:28 14.35663 99.90795 34731 ft 485 kts 131°
2026-04-19 12:29 14.31118 99.95941 34732 ft 484 kts 131°
2026-04-19 12:29 14.26573 100.01080 34740 ft 484 kts 131°
2026-04-19 12:30 14.22064 100.06183 34744 ft 484 kts 131°
2026-04-19 12:30 14.17527 100.11316 34743 ft 484 kts 131°
2026-04-19 12:31 14.12990 100.16433 34752 ft 484 kts 131°
2026-04-19 12:31 14.08455 100.21549 34752 ft 484 kts 131°
2026-04-19 12:32 14.03916 100.26679 34751 ft 485 kts 131°
2026-04-19 12:32 13.99366 100.31809 34753 ft 485 kts 131°
2026-04-19 12:33 13.94831 100.36921 34759 ft 483 kts 131°
2026-04-19 12:33 13.90290 100.42030 34760 ft 483 kts 131°
2026-04-19 12:34 13.85761 100.47127 34757 ft 483 kts 131°
2026-04-19 12:34 13.81230 100.52223 34763 ft 482 kts 131°
2026-04-19 12:35 13.76693 100.57320 34760 ft 483 kts 131°
2026-04-19 12:35 13.72150 100.62418 34759 ft 484 kts 130°
2026-04-19 12:36 13.67628 100.67485 34761 ft 484 kts 131°
2026-04-19 12:36 13.63073 100.72592 34759 ft 484 kts 130°
2026-04-19 12:37 13.58528 100.77686 34759 ft 482 kts 130°
2026-04-19 12:37 13.53985 100.82781 34760 ft 483 kts 130°
2026-04-19 12:38 13.49482 100.87835 34764 ft 482 kts 130°
2026-04-19 12:38 13.44934 100.92918 34767 ft 483 kts 131°
2026-04-19 12:39 13.40380 100.97991 34773 ft 483 kts 131°
2026-04-19 12:39 13.35841 101.03071 34781 ft 482 kts 130°
2026-04-19 12:40 13.31302 101.08161 34785 ft 483 kts 130°
2026-04-19 12:40 13.26750 101.13239 34784 ft 483 kts 131°
2026-04-19 12:41 13.22185 101.18312 34790 ft 482 kts 131°
2026-04-19 12:41 13.17634 101.23376 34790 ft 482 kts 131°
2026-04-19 12:42 13.13121 101.28406 34790 ft 482 kts 130°
2026-04-19 12:42 13.08573 101.33475 34802 ft 483 kts 130°
2026-04-19 12:43 13.04017 101.38557 34800 ft 483 kts 131°
2026-04-19 12:43 12.99459 101.43625 34799 ft 483 kts 131°
2026-04-19 12:44 12.94898 101.48696 34804 ft 483 kts 131°
2026-04-19 12:44 12.90339 101.53765 34804 ft 483 kts 131°
2026-04-19 12:45 12.85776 101.58829 34802 ft 483 kts 131°
2026-04-19 12:45 12.81217 101.63884 34814 ft 482 kts 131°
2026-04-19 12:46 12.76667 101.68939 34817 ft 483 kts 130°
2026-04-19 12:46 12.72212 101.74051 34815 ft 484 kts 130°
2026-04-19 12:47 12.67745 101.79205 34818 ft 484 kts 130°
2026-04-19 12:47 12.63259 101.84349 34820 ft 484 kts 130°
2026-04-19 12:48 12.58764 101.89476 34820 ft 484 kts 130°
2026-04-19 12:48 12.54272 101.94612 34824 ft 484 kts 130°
2026-04-19 12:49 12.49770 101.99732 34819 ft 484 kts 130°
2026-04-19 12:49 12.45278 102.04856 34829 ft 483 kts 130°
2026-04-19 12:50 12.40814 102.09950 34832 ft 484 kts 130°
2026-04-19 12:50 12.36315 102.15073 34830 ft 483 kts 130°
2026-04-19 12:51 12.31817 102.20187 34820 ft 483 kts 130°
2026-04-19 12:51 12.27329 102.25304 34818 ft 483 kts 130°
2026-04-19 12:52 12.22836 102.30418 34817 ft 483 kts 130°
2026-04-19 12:52 12.18341 102.35525 34817 ft 483 kts 130°
2026-04-19 12:53 12.13879 102.40596 34824 ft 483 kts 130°
2026-04-19 12:53 12.09391 102.45722 34828 ft 482 kts 130°
2026-04-19 12:54 12.04915 102.50816 34842 ft 482 kts 130°
2026-04-19 12:54 12.00434 102.55903 34852 ft 482 kts 131°
2026-04-19 12:55 11.95941 102.60984 34853 ft 482 kts 130°
2026-04-19 12:55 11.91447 102.66075 34861 ft 481 kts 130°
2026-04-19 12:56 11.86987 102.71128 34851 ft 476 kts 130°
2026-04-19 12:56 11.82573 102.76133 34856 ft 477 kts 130°
2026-04-19 12:57 11.78100 102.81207 34869 ft 482 kts 131°
2026-04-19 12:57 11.73608 102.86291 34852 ft 481 kts 131°
2026-04-19 12:58 11.69153 102.91331 34855 ft 480 kts 131°
2026-04-19 12:58 11.64669 102.96401 34864 ft 480 kts 131°
2026-04-19 12:59 11.59846 103.01045 34851 ft 476 kts 145°
2026-04-19 12:59 11.54231 103.04606 34857 ft 479 kts 148°
2026-04-19 13:00 11.48501 103.08162 34869 ft 483 kts 148°
2026-04-19 13:00 11.42783 103.11754 34858 ft 483 kts 148°
2026-04-19 13:01 11.37102 103.15319 34792 ft 477 kts 148°
2026-04-19 13:01 11.34268 103.17098 33899 ft 482 kts 148°
2026-04-19 13:01 11.31373 103.18917 32649 ft 493 kts 148°
2026-04-19 13:02 11.28451 103.20750 31800 ft 493 kts 148°
2026-04-19 13:02 11.25537 103.22577 31079 ft 491 kts 148°
2026-04-19 13:02 11.22638 103.24396 30385 ft 488 kts 147°
2026-04-19 13:02 11.19756 103.26203 29668 ft 484 kts 147°
2026-04-19 13:03 11.16897 103.27994 28880 ft 481 kts 147°
2026-04-19 13:03 11.14056 103.29772 28118 ft 478 kts 147°
2026-04-19 13:03 11.11235 103.31538 27371 ft 474 kts 147°
2026-04-19 13:03 11.08436 103.33291 26640 ft 470 kts 147°
2026-04-19 13:04 11.05661 103.35033 25937 ft 466 kts 147°
2026-04-19 13:04 11.02914 103.36756 25248 ft 462 kts 147°
2026-04-19 13:04 11.00181 103.38466 24570 ft 458 kts 147°
2026-04-19 13:04 10.97477 103.40158 23910 ft 454 kts 147°
2026-04-19 13:05 10.94797 103.41835 23230 ft 450 kts 147°
2026-04-19 13:05 10.92168 103.43473 22469 ft 446 kts 148°
2026-04-19 13:05 10.89495 103.45134 21683 ft 443 kts 148°
2026-04-19 13:05 10.86909 103.46746 20821 ft 442 kts 148°
2026-04-19 13:06 10.84287 103.48383 19925 ft 442 kts 148°
2026-04-19 13:06 10.81668 103.50018 19043 ft 442 kts 148°
2026-04-19 13:06 10.79047 103.51653 18180 ft 441 kts 148°
2026-04-19 13:06 10.77282 103.52761 17504 ft 441 kts 148°
2026-04-19 13:07 10.74675 103.54394 16514 ft 440 kts 148°
2026-04-19 13:07 10.72106 103.56002 15577 ft 438 kts 148°
2026-04-19 13:07 10.69506 103.57627 14725 ft 439 kts 148°
2026-04-19 13:07 10.66920 103.59242 13969 ft 433 kts 148°
2026-04-19 13:08 10.64386 103.60822 13393 ft 418 kts 148°
2026-04-19 13:08 10.61966 103.62332 12997 ft 397 kts 148°
2026-04-19 13:08 10.59675 103.63770 12652 ft 377 kts 147°
2026-04-19 13:08 10.57640 103.65342 12206 ft 359 kts 139°
2026-04-19 13:09 10.55833 103.67019 11765 ft 344 kts 137°
2026-04-19 13:09 10.54118 103.68648 11369 ft 330 kts 136°
2026-04-19 13:09 10.52471 103.70209 10979 ft 318 kts 136°
2026-04-19 13:09 10.50874 103.71708 10613 ft 307 kts 137°
2026-04-19 13:10 10.49312 103.73166 10365 ft 300 kts 137°
2026-04-19 13:10 10.47791 103.74585 10152 ft 294 kts 137°
2026-04-19 13:10 10.46288 103.75986 9930 ft 294 kts 137°
2026-04-19 13:10 10.44743 103.77349 9823 ft 295 kts 144°
2026-04-19 13:11 10.42919 103.78240 9548 ft 290 kts 161°
2026-04-19 13:11 10.40986 103.78853 8845 ft 293 kts 163°
2026-04-19 13:11 10.39032 103.79442 8179 ft 293 kts 163°
2026-04-19 13:11 10.37118 103.80029 7632 ft 290 kts 162°
2026-04-19 13:12 10.35198 103.80629 7075 ft 286 kts 162°
2026-04-19 13:12 10.33328 103.81225 6706 ft 276 kts 162°
2026-04-19 13:12 10.31533 103.81801 6358 ft 266 kts 162°
2026-04-19 13:12 10.29733 103.82168 5850 ft 263 kts 179°
2026-04-19 13:13 10.27920 103.82005 5325 ft 261 kts 187°
2026-04-19 13:13 10.26114 103.81773 4902 ft 262 kts 185°
2026-04-19 13:13 10.24317 103.81563 4591 ft 257 kts 185°
2026-04-19 13:13 10.22565 103.81369 4163 ft 248 kts 185°
2026-04-19 13:14 10.20887 103.81373 3822 ft 236 kts 166°
2026-04-19 13:14 10.19465 103.82080 3642 ft 223 kts 137°
2026-04-19 13:14 10.18598 103.83336 3397 ft 218 kts 110°
2026-04-19 13:14 10.18278 103.84816 3136 ft 217 kts 96°
2026-04-19 13:15 10.18190 103.86275 3021 ft 195 kts 93°
2026-04-19 13:15 10.18125 103.87541 3009 ft 163 kts 95°
2026-04-19 13:15 10.18043 103.88586 2904 ft 142 kts 95°
2026-04-19 13:15 10.17989 103.89584 2588 ft 141 kts 96°
2026-04-19 13:16 10.17882 103.90572 2250 ft 140 kts 98°
2026-04-19 13:16 10.17771 103.91554 1876 ft 140 kts 97°
2026-04-19 13:16 10.17691 103.92535 1500 ft 139 kts 98°
2026-04-19 13:16 10.17587 103.93507 1122 ft 138 kts 100°
2026-04-19 13:17 10.17477 103.94480 804 ft 139 kts 98°
2026-04-19 13:17 10.17370 103.95460 616 ft 140 kts 99°
2026-04-19 13:17 10.17278 103.96438 419 ft 140 kts 96°
2026-04-19 13:17 10.17177 103.97428 210 ft 142 kts 98°
2026-04-19 13:18 10.17075 103.98409 82 ft 135 kts 97°
2026-04-19 13:18 10.16991 103.99260 71 ft 103 kts 96°
2026-04-19 13:18 10.16939 103.99782 71 ft 30 kts 95°
2026-04-19 13:18 10.16906 103.99930 69 ft 22 kts 121°
2026-04-19 13:19 10.16843 104.00025 67 ft 0 kts 127°
2026-04-19 13:19 10.16835 104.00035 68 ft 3 kts 127°
2026-04-19 13:19 10.16820 104.00055 70 ft 0 kts 128°
2026-04-19 13:19 10.16812 104.00064 67 ft 3 kts 139°
2026-04-19 13:20 10.16775 104.00068 70 ft 8 kts 195°
2026-04-19 13:20 10.16734 104.00045 69 ft 2 kts 243°
2026-04-19 13:20 10.16730 104.00017 70 ft 6 kts 274°
2026-04-19 13:20 10.16731 104.00004 68 ft 3 kts 275°
2026-04-19 13:21 10.16738 103.99966 71 ft 7 kts 285°
2026-04-19 13:21 10.16749 103.99924 72 ft 1 kts 281°
2026-04-19 13:21 10.16752 103.99903 72 ft 5 kts 275°
2026-04-19 13:21 10.16731 103.99862 69 ft 9 kts 198°
2026-04-19 13:22 10.16655 103.99851 71 ft 13 kts 185°
2026-04-19 13:22 10.16559 103.99842 64 ft 0 kts 185°
2026-04-19 13:22 10.16558 103.99842 64 ft 1 kts 185°
2026-04-19 13:22 10.16538 103.99842 69 ft 5 kts 168°
2026-04-19 13:23 10.16489 103.99852 64 ft 9 kts 185°
2026-04-19 13:23 10.16438 103.99847 65 ft 6 kts 186°
2026-04-19 13:23 10.16425 103.99845 67 ft 4 kts 186°
2026-04-19 13:23 10.16422 103.99845 68 ft 0 kts 186°